TITAN 3C TRANSTAGE DEB, 20760

Orbit data source: Space-Track

TITAN 3C TRANSTAGE DEB, 20760 is space debris in HEO originally from a launch on Tue, 21 Dec 1965 UTC launched from the Air Force Eastern Test Range (AFETR). Debris objects in space refer to the collection of defunct objects orbiting the Earth. Examples of debris include non-operational satellites, rocket bodies, and fragments generated from explosions, collisions, or faulty payload assembly.

Loading next visibility...
Identifier
20760, 1965-108AE
Orbit
HEO
Country
Flag of USUS
Related business
Manufacturer
Unknown
Mission
Spacecraft
Bus & Motor
Unknown
Mass
Unknown
Launch date (UTC)
1965-12-21 (60 years ago)
Launch vehicle
Unknown
Launch site
Air Force Eastern Test Range (AFETR)
Object type
Payload
Rocket body
Debris
Shape & HBR
Unknown shape, 0.2 m
Radar Cross Section
Medium (>0.1 m² and <1 m²)

Expand to show TLE details & history
Last TLE update: 13 hours ago

TLE from 13 hours ago
0 TITAN 3C TRANSTAGE DEB
1 20760U 65108AE  25342.61772764 -.00000034  00000-0  57196-3 0  9990
2 20760  27.2854  46.5324 6697824 163.8110 353.9315  2.84535740145929
Epoch: 2025-12-08T14:49Z
TLE epoch observation values (Epoch: 2025-12-08T14:49:31.668Z)
Latitude
22.35182°
Longitude
-125.86003°
Altitude
1,273.241 km
Speed
9.234 km/s
True Right ascension
11h 36m 32s
True Declination
22° 14' 21"
Sunlit
Object was in daylight at epoch
Visualization orbit readout
Latitude
Unknown
Longitude
Unknown
Altitude
Unknown
Speed
Unknown
Apparent Right ascension
Unknown
Apparent Declination
Unknown
Sunlit
N/A
Visualization observer readout
Local Sidereal Time
02:17:44
Azimuth
Unknown
Elevation
Unknown
Doppler factor
Unknown
Orbital elements
Apogee altitude
28,754.417 km
Perigee altitude
569.707 km
Semi-major axis
21,040.199 km
Eccentricity
0.66978
Inclination
27.2854°
RAAN
46.5324°
Arg. of periapsis
163.811°
True anomaly
321.20332°
Mean anomaly
353.9315°
Eccentric anomaly
342.20063°
Mean motion
0.71116 °/min
Orbital period
506.21 mins
BSTAR
0.00057196
Loading maneuver chart data...
Computing Atmospheric mass density...

Documentation

Showing up to 5 results
|